Time,TemperatureF,DewpointF,PressureIn,WindDirection,WindDirectionDegrees,WindSpeedMPH,WindSpeedGustMPH,Humidity,HourlyPrecipIn,Conditions,Clouds,dailyrainin,SolarRadiationWatts/m^2,SoftwareType,DateUTC
2013-06-22 07:53:00,52.0,46.0,-100.00,NW,319,1.0,3.0,79,0.00,,,0.01,163.000000,,2013-06-22 14:53:00,
2013-06-22 08:43:00,52.0,46.0,-100.00,NW,319,1.0,3.0,79,0.00,,,0.01,163.000000,,2013-06-22 15:43:00,
2013-06-22 09:34:00,58.0,46.0,-100.00,SSE,154,1.0,5.0,64,0.00,,,0.01,232.000000,,2013-06-22 16:34:00,
2013-06-22 09:43:00,58.0,46.0,-100.00,SSE,154,1.0,5.0,64,0.00,,,0.01,232.000000,,2013-06-22 16:43:00,
2013-06-22 09:52:00,58.0,46.0,-100.00,SSE,154,1.0,5.0,64,0.00,,,0.01,232.000000,,2013-06-22 16:52:00,
2013-06-22 10:43:00,64.0,49.0,-100.00,West,279,3.0,6.0,59,0.00,,,0.01,541.000000,,2013-06-22 17:43:00,
2013-06-22 10:52:00,64.0,49.0,-100.00,West,279,3.0,6.0,59,0.00,,,0.01,541.000000,,2013-06-22 17:52:00,
2013-06-22 11:12:00,66.0,46.0,-100.00,NW,318,3.0,9.0,49,0.00,,,0.01,937.000000,,2013-06-22 18:12:00,
2013-06-22 11:22:00,66.0,46.0,-100.00,NW,318,3.0,9.0,49,0.00,,,0.01,937.000000,,2013-06-22 18:22:00,
2013-06-22 11:34:00,66.0,46.0,-100.00,NW,318,3.0,9.0,49,0.00,,,0.01,937.000000,,2013-06-22 18:34:00,
2013-06-22 11:43:00,66.0,46.0,-100.00,NW,318,3.0,9.0,49,0.00,,,0.01,937.000000,,2013-06-22 18:43:00,
2013-06-22 11:52:00,66.0,46.0,-100.00,NW,318,3.0,9.0,49,0.00,,,0.01,937.000000,,2013-06-22 18:52:00,
2013-06-22 12:33:00,71.0,46.0,-100.00,NW,320,3.0,9.0,41,0.00,,,0.01,1064.000000,,2013-06-22 19:33:00,
2013-06-22 12:42:00,71.0,46.0,-100.00,NW,320,3.0,9.0,41,0.00,,,0.01,1064.000000,,2013-06-22 19:42:00,
2013-06-22 12:52:00,71.0,46.0,-100.00,NW,320,3.0,9.0,41,0.00,,,0.01,1064.000000,,2013-06-22 19:52:00,
2013-06-22 12:53:00,72.0,47.0,-100.00,WSW,250,3.0,12.0,41,0.00,,,0.01,1165.000000,,2013-06-22 19:53:00,
2013-06-22 13:33:00,72.0,47.0,-100.00,WSW,250,3.0,12.0,41,0.00,,,0.01,1165.000000,,2013-06-22 20:33:00,
2013-06-22 13:42:00,72.0,47.0,-100.00,WSW,250,3.0,12.0,41,0.00,,,0.01,1165.000000,,2013-06-22 20:42:00,
2013-06-22 13:53:00,71.0,46.0,-100.00,East,101,3.0,10.0,41,-99.99,,,-99.99,1153.000000,,2013-06-22 20:53:00,
2013-06-22 14:22:00,71.0,46.0,-100.00,East,101,3.0,10.0,41,-99.99,,,-99.99,1153.000000,,2013-06-22 21:22:00,
2013-06-22 14:33:00,71.0,46.0,-100.00,East,101,3.0,10.0,41,-99.99,,,-99.99,1153.000000,,2013-06-22 21:33:00,
2013-06-22 14:43:00,71.0,46.0,-100.00,East,101,3.0,10.0,41,-99.99,,,-99.99,1153.000000,,2013-06-22 21:43:00,
2013-06-22 15:12:00,70.0,47.0,-100.00,NNW,340,3.0,11.0,44,0.00,,,0.01,899.000000,,2013-06-22 22:12:00,
2013-06-22 15:23:00,70.0,47.0,-100.00,NNW,340,3.0,11.0,44,0.00,,,0.01,899.000000,,2013-06-22 22:23:00,
2013-06-22 15:33:00,70.0,47.0,-100.00,NNW,340,3.0,11.0,44,0.00,,,0.01,899.000000,,2013-06-22 22:33:00,
2013-06-22 15:43:00,70.0,47.0,-100.00,NNW,340,3.0,11.0,44,0.00,,,0.01,899.000000,,2013-06-22 22:43:00,
2013-06-22 15:52:00,70.0,47.0,-100.00,NNW,340,3.0,11.0,44,0.00,,,0.01,899.000000,,2013-06-22 22:52:00,
2013-06-22 16:22:00,72.0,46.0,-100.00,SSW,192,3.0,10.0,39,0.00,,,0.01,1046.000000,,2013-06-22 23:22:00,
2013-06-22 16:34:00,72.0,46.0,-100.00,SSW,192,3.0,10.0,39,0.00,,,0.01,1046.000000,,2013-06-22 23:34:00,
2013-06-22 16:43:00,72.0,46.0,-100.00,SSW,192,3.0,10.0,39,0.00,,,0.01,1046.000000,,2013-06-22 23:43:00,
2013-06-22 16:52:00,72.0,46.0,-100.00,SSW,192,3.0,10.0,39,0.00,,,0.01,1046.000000,,2013-06-22 23:52:00,
2013-06-22 17:22:00,68.0,49.0,-100.00,NW,321,3.0,11.0,51,0.00,,,0.01,445.000000,,2013-06-23 00:22:00,
2013-06-22 17:33:00,68.0,49.0,-100.00,NW,321,3.0,11.0,51,0.00,,,0.01,445.000000,,2013-06-23 00:33:00,
2013-06-22 17:42:00,68.0,49.0,-100.00,NW,321,3.0,11.0,51,0.00,,,0.01,445.000000,,2013-06-23 00:42:00,
2013-06-22 17:52:00,68.0,49.0,-100.00,NW,321,3.0,11.0,51,0.00,,,0.01,445.000000,,2013-06-23 00:52:00,
2013-06-22 18:11:00,67.0,48.0,-100.00,ESE,111,2.0,10.0,51,0.00,,,0.01,487.000000,,2013-06-23 01:11:00,
2013-06-22 18:21:00,67.0,48.0,-100.00,ESE,111,2.0,10.0,51,0.00,,,0.01,487.000000,,2013-06-23 01:21:00,
2013-06-22 18:32:00,67.0,48.0,-100.00,ESE,111,2.0,10.0,51,0.00,,,0.01,487.000000,,2013-06-23 01:32:00,
2013-06-22 18:42:00,67.0,48.0,-100.00,ESE,111,2.0,10.0,51,0.00,,,0.01,487.000000,,2013-06-23 01:42:00,
2013-06-22 18:52:00,67.0,48.0,-100.00,ESE,111,2.0,10.0,51,0.00,,,0.01,487.000000,,2013-06-23 01:52:00,
2013-06-22 19:11:00,70.0,49.0,-100.00,NW,309,3.0,8.0,47,0.00,,,0.01,332.000000,,2013-06-23 02:11:00,
2013-06-22 19:21:00,70.0,49.0,-100.00,NW,309,3.0,8.0,47,0.00,,,0.01,332.000000,,2013-06-23 02:21:00,
2013-06-22 19:31:00,70.0,49.0,-100.00,NW,309,3.0,8.0,47,0.00,,,0.01,332.000000,,2013-06-23 02:31:00,
2013-06-22 19:41:00,70.0,49.0,-100.00,NW,309,3.0,8.0,47,0.00,,,0.01,332.000000,,2013-06-23 02:41:00,
2013-06-22 19:52:00,70.0,49.0,-100.00,NW,309,3.0,8.0,47,0.00,,,0.01,332.000000,,2013-06-23 02:52:00,
2013-06-22 20:11:00,65.0,49.0,-100.00,NE,54,1.0,8.0,57,-99.99,,,0.01,172.000000,,2013-06-23 03:11:00,
2013-06-22 20:21:00,65.0,49.0,-100.00,NE,54,1.0,8.0,57,-99.99,,,0.01,172.000000,,2013-06-23 03:21:00,
2013-06-22 20:31:00,65.0,49.0,-100.00,NE,54,1.0,8.0,57,-99.99,,,0.01,172.000000,,2013-06-23 03:31:00,
2013-06-22 20:41:00,65.0,49.0,-100.00,NE,54,1.0,8.0,57,-99.99,,,0.01,172.000000,,2013-06-23 03:41:00,
2013-06-22 20:51:00,65.0,49.0,-100.00,NE,54,1.0,8.0,57,-99.99,,,0.01,172.000000,,2013-06-23 03:51:00,
2013-06-22 21:11:00,58.0,50.0,-100.00,NNE,24,1.0,5.0,75,0.00,,,0.00,39.000000,,2013-06-23 04:11:00,
2013-06-22 21:21:00,58.0,50.0,-100.00,NNE,24,1.0,5.0,75,0.00,,,0.00,39.000000,,2013-06-23 04:21:00,
2013-06-22 21:31:00,58.0,50.0,-100.00,NNE,24,1.0,5.0,75,0.00,,,0.00,39.000000,,2013-06-23 04:31:00,
2013-06-22 21:42:00,58.0,50.0,-100.00,NNE,24,1.0,5.0,75,0.00,,,0.00,39.000000,,2013-06-23 04:42:00,
2013-06-22 21:52:00,58.0,50.0,-100.00,NNE,24,1.0,5.0,75,0.00,,,0.00,39.000000,,2013-06-23 04:52:00,
2013-06-22 22:11:00,55.0,50.0,-100.00,SE,141,1.0,2.0,84,0.00,,,0.00,1.000000,,2013-06-23 05:11:00,
2013-06-22 22:22:00,55.0,50.0,-100.00,SE,141,1.0,2.0,84,0.00,,,0.00,1.000000,,2013-06-23 05:22:00,
2013-06-22 22:32:00,55.0,50.0,-100.00,SE,141,1.0,2.0,84,0.00,,,0.00,1.000000,,2013-06-23 05:32:00,
2013-06-22 22:41:00,55.0,50.0,-100.00,SE,141,1.0,2.0,84,0.00,,,0.00,1.000000,,2013-06-23 05:41:00,
2013-06-22 22:51:00,55.0,50.0,-100.00,SE,141,1.0,2.0,84,0.00,,,0.00,1.000000,,2013-06-23 05:51:00,
2013-06-22 23:12:00,53.0,50.0,-100.00,ESE,116,1.0,2.0,91,0.00,,,0.00,0.000000,,2013-06-23 06:12:00,
2013-06-22 23:22:00,53.0,50.0,-100.00,ESE,116,1.0,2.0,91,0.00,,,0.00,0.000000,,2013-06-23 06:22:00,
2013-06-22 23:33:00,53.0,50.0,-100.00,ESE,116,1.0,2.0,91,0.00,,,0.00,0.000000,,2013-06-23 06:33:00,
2013-06-22 23:43:00,53.0,50.0,-100.00,ESE,116,1.0,2.0,91,0.00,,,0.00,0.000000,,2013-06-23 06:43:00,
2013-06-22 23:52:00,53.0,50.0,-100.00,ESE,116,1.0,2.0,91,0.00,,,0.00,0.000000,,2013-06-23 06:52:00,
2013-06-22 23:53:00,51.0,49.0,-100.00,SSE,164,0.0,2.0,93,0.00,,,0.00,0.000000,,2013-06-23 06:53:00,